GFSSGP_500_rhum_126.txt.gz
RH
9 10 9 8 9 9 15 18 34 31 22 7 8 9 12 12 14 27 7 11 20 14 17 16 16 16 15 13 15 17 16 16 16 17 17 15 8 4 4 4 4 5 9 15 19 4 8 23 26
7 8 8 8 8 8 11 48 38 38 15 15 15 13 12 12 7 11 6 13 17 12 17 15 15 15 16 15 15 17 17 15 16 18 20 20 12 5 4 4 4 8 12 24 16 17 25 33 22
8 8 10 10 11 12 16 55 46 39 30 23 25 18 19 16 12 9 10 12 11 11 14 16 16 16 17 17 17 18 18 16 18 18 23 26 17 7 4 4 4 8 11 11 25 26 36 22 26
12 13 15 16 18 22 31 62 41 46 36 30 28 27 22 17 16 11 14 14 15 13 13 15 16 15 17 18 17 17 19 16 18 19 23 25 16 9 5 4 5 8 8 6 12 29 15 9 16
25 20 17 17 20 26 34 46 73 28 31 35 29 22 28 27 12 9 16 16 16 14 16 15 15 17 17 18 17 19 22 18 17 18 20 24 18 11 8 6 9 16 9 4 16 13 4 6 7
33 32 30 29 29 66 72 81 68 38 23 22 23 23 28 19 14 11 15 17 18 19 18 17 16 16 17 17 18 20 22 22 18 17 18 22 22 14 35 20 8 11 6 4 8 4 5 6 6
37 33 30 30 28 28 48 63 52 21 20 18 14 15 18 14 11 11 14 19 21 21 22 20 19 19 19 19 19 21 24 23 20 19 20 21 22 17 16 13 10 13 6 7 4 4 4 5 4
42 39 38 38 38 43 55 43 25 26 32 40 37 32 23 16 12 10 9 15 25 25 23 23 20 21 22 21 21 22 24 25 22 24 25 24 23 19 13 16 9 8 7 9 6 4 5 5 4
62 65 60 60 58 50 42 38 43 44 43 45 44 40 38 37 25 20 16 13 18 25 29 27 26 31 24 24 26 26 26 27 25 24 26 27 26 23 16 12 10 9 15 15 7 5 4 4 5
54 55 58 62 64 63 68 86 82 71 58 54 52 49 46 40 40 38 35 27 14 17 25 30 28 33 29 25 27 29 28 27 28 26 26 28 29 27 20 13 15 12 11 11 8 7 5 4 5
42 42 48 49 49 48 47 50 50 48 44 46 57 65 59 43 40 42 43 37 28 16 18 23 33 30 44 43 26 27 31 28 29 28 27 28 29 30 27 18 22 25 13 11 10 9 7 5 6
22 32 32 35 38 37 40 36 34 34 33 32 31 32 34 34 36 33 33 37 39 22 15 26 31 39 37 49 35 30 29 30 30 28 30 28 28 26 31 24 38 33 25 13 13 12 10 7 5
13 16 17 24 26 30 33 34 33 34 29 27 27 26 25 23 22 22 25 27 29 36 26 14 19 36 51 45 36 33 30 28 28 30 30 31 30 29 36 28 35 24 16 15 16 18 13 12 18
13 10 10 14 13 21 28 29 30 23 22 20 18 15 14 14 14 15 18 18 18 21 28 28 18 18 41 56 47 39 37 30 27 27 30 32 32 32 34 37 34 31 18 17 18 19 17 14 15
14 12 14 13 13 18 22 24 17 13 12 12 11 10 9 7 5 4 4 6 9 12 14 21 26 19 40 46 57 48 42 39 34 27 30 34 33 34 33 34 36 27 20 18 20 20 23 22 36
12 10 16 18 21 17 14 11 8 7 6 5 6 6 5 4 4 5 5 3 3 6 6 10 16 22 26 45 48 59 49 45 41 34 33 33 35 34 33 34 38 30 22 19 20 22 24 23 28
17 14 21 22 15 13 11 9 3 2 3 3 4 3 3 2 2 2 2 3 2 2 2 5 7 13 20 27 19 63 58 54 46 43 35 35 34 35 36 37 38 38 27 22 20 22 24 33 32
35 30 25 16 8 7 6 4 2 3 3 4 4 4 8 13 14 14 15 8 3 2 2 2 2 6 11 19 19 28 66 79 75 49 36 36 37 35 38 36 40 37 30 25 22 23 24 25 29
28 29 17 7 5 7 4 3 2 6 9 4 14 28 26 27 27 25 30 33 18 27 15 2 1 3 5 10 19 16 27 70 99 70 41 36 40 38 38 38 42 43 34 28 25 23 25 26 28
30 16 5 4 4 3 2 2 2 35 40 10 29 24 22 19 22 32 39 29 25 34 35 31 8 1 5 5 10 18 20 39 98 92 62 41 45 43 38 40 42 48 41 33 28 28 26 26 28
27 7 4 4 2 2 2 2 11 97 68 71 42 30 22 27 31 35 30 18 17 19 26 26 25 13 2 7 8 8 17 35 80 98 78 38 52 46 43 43 42 45 50 42 33 30 29 31 30
21 4 4 3 2 2 6 9 19 91 52 36 72 34 29 30 49 43 35 32 28 20 30 28 30 28 18 4 7 10 14 20 65 98 88 37 57 53 48 46 45 42 49 53 42 40 39 37 38
6 4 3 2 2 2 14 82 100 92 96 83 56 31 37 48 50 53 47 41 37 30 27 25 39 28 28 23 6 7 12 16 48 91 91 49 64 60 54 51 51 48 47 56 54 52 48 47 46
4 4 3 2 2 4 58 97 62 100 95 57 52 36 45 48 58 64 48 38 44 36 47 57 63 63 36 27 9 8 8 16 28 74 74 53 48 62 58 53 54 54 54 63 60 53 50 53 53
4 4 2 2 4 8 89 91 54 28 37 41 26 43 50 48 57 55 44 38 41 42 64 64 79 57 40 36 23 7 8 13 30 80 84 68 52 55 64 60 59 58 61 60 63 60 52 53 55
4 3 3 3 3 7 22 36 53 74 70 56 59 62 60 62 65 53 37 42 52 65 58 92 88 82 37 38 45 7 8 12 23 75 98 90 56 58 71 85 64 62 67 67 73 67 72 63 56
4 3 3 3 6 19 37 68 94 96 81 74 66 69 77 76 56 56 60 63 59 86 88 90 88 76 56 46 41 7 9 17 39 91 66 96 80 64 92 98 73 65 74 71 81 83 90 83 76
4 4 5 6 20 27 40 65 63 78 87 71 69 68 83 82 69 62 74 58 65 83 96 90 100 88 70 75 37 7 9 27 78 68 68 95 92 87 100 90 90 98 84 81 87 100 100 99 84
4 3 4 13 18 21 49 76 76 91 85 72 68 76 79 73 64 66 60 93 67 100 98 100 84 99 100 67 37 9 20 58 87 94 87 96 95 98 94 96 95 85 99 80 92 98 99 98 90
4 4 7 9 12 21 45 46 67 79 81 75 80 78 75 81 66 72 52 69 98 72 77 100 93 97 100 70 30 10 27 74 98 99 95 96 90 96 96 96 98 90 92 95 98 97 97 96 92

GFSSGP_500_rhum_129.txt.gz
RH
20 21 21 17 10 10 14 30 27 23 30 30 25 24 16 13 12 14 10 8 9 17 21 25 18 16 17 16 16 16 15 16 16 17 16 17 18 14 6 4 3 3 13 20 15 15 10 24 20
7 6 7 6 8 7 15 15 49 45 37 34 28 28 19 13 11 11 9 10 15 18 17 14 17 17 16 16 16 16 16 17 15 17 17 18 22 20 8 4 4 4 10 12 16 23 30 37 21
14 9 8 7 8 10 16 27 47 51 42 38 31 28 24 23 18 12 12 14 12 14 18 13 13 15 16 16 16 17 16 18 16 16 18 18 21 23 11 5 4 5 10 8 10 13 22 18 8
28 21 13 10 13 21 26 37 61 50 45 50 32 28 18 20 18 16 18 20 18 15 19 18 16 14 15 15 16 17 16 17 18 18 17 16 19 23 13 7 5 6 10 11 4 14 18 4 5
38 34 29 22 25 30 51 57 79 65 62 39 36 38 23 21 18 17 19 25 21 19 19 20 19 16 15 14 15 17 16 17 20 20 17 16 17 23 16 10 7 8 14 12 6 8 4 4 5
42 38 35 34 35 35 40 38 53 70 66 44 42 52 27 22 20 17 15 19 26 20 22 24 22 20 18 16 16 15 17 17 20 22 18 16 16 21 21 15 29 9 11 6 5 4 4 4 4
46 42 40 38 35 35 34 37 39 46 31 28 39 38 24 20 16 14 14 15 16 20 23 27 26 24 21 19 17 16 16 18 20 22 21 20 18 19 21 16 16 9 13 7 7 4 4 4 4
57 54 48 44 48 51 46 64 54 45 53 53 48 46 45 33 27 23 23 24 16 14 21 33 31 26 25 22 20 20 19 19 21 22 20 21 23 20 21 19 13 14 8 8 9 7 5 4 4
48 52 63 67 65 64 65 66 80 77 66 65 70 84 63 50 36 29 29 37 34 20 15 18 35 36 29 27 26 21 21 21 22 23 21 22 23 23 22 22 17 11 9 9 16 8 6 6 4
31 32 45 46 43 40 48 50 57 54 50 56 59 78 84 81 65 50 47 46 44 38 28 14 19 38 37 32 28 29 26 23 24 24 23 23 23 24 26 25 22 14 14 10 12 8 7 7 6
7 10 16 26 23 15 22 30 32 36 43 44 43 45 45 45 47 54 56 66 49 43 42 38 24 17 39 40 36 36 34 25 25 25 24 24 24 25 25 27 27 19 18 20 10 9 8 8 7
6 9 11 12 10 9 10 11 20 26 34 33 35 35 35 34 32 30 29 34 41 72 53 42 42 31 19 50 43 58 75 41 29 26 25 25 27 28 28 29 29 26 34 33 24 11 10 9 9
12 14 12 12 11 9 6 5 8 31 25 19 17 20 20 18 17 17 18 21 23 24 34 42 46 55 36 17 43 44 62 81 43 30 26 25 26 30 30 31 35 28 31 31 18 14 14 15 10
12 11 13 11 7 6 7 8 11 18 15 13 12 13 11 11 10 8 7 8 9 10 15 20 21 32 61 62 19 33 49 49 44 38 30 31 27 28 31 32 36 38 33 29 17 16 14 17 14
17 16 14 11 11 11 10 11 14 10 9 9 8 7 9 8 8 6 6 6 6 5 5 6 8 14 18 43 40 38 27 45 54 40 40 37 32 29 30 31 36 39 37 32 23 18 17 18 18
20 19 17 18 15 17 11 10 11 10 10 11 9 9 8 6 6 5 4 4 3 3 3 4 3 5 7 12 30 23 33 45 44 62 48 45 40 33 32 31 35 39 39 35 23 19 18 19 22
21 22 21 18 26 23 16 15 9 8 5 9 9 9 7 5 5 4 4 5 4 3 2 2 2 2 3 5 10 20 21 31 59 77 71 57 44 37 34 34 33 41 37 39 30 22 20 20 21
15 22 18 14 24 24 19 13 4 3 6 9 9 5 6 6 7 14 23 24 23 21 18 12 6 4 2 3 5 9 17 22 40 90 95 90 50 40 38 37 35 38 39 40 42 28 24 22 20
8 25 20 26 29 26 16 8 4 3 7 6 5 5 10 20 25 24 18 17 17 25 24 29 14 13 9 2 3 5 8 17 27 55 89 97 71 52 44 38 38 33 40 44 41 33 28 25 24
19 32 34 27 29 21 13 7 4 3 4 6 6 16 21 52 28 19 16 14 14 15 26 25 17 14 14 15 5 4 5 8 18 30 63 94 92 80 52 40 40 38 39 42 43 38 32 29 27
30 48 46 34 29 13 5 8 5 6 6 13 33 53 55 59 30 15 15 22 28 25 26 23 23 26 17 18 20 16 7 5 12 20 35 49 97 82 70 44 42 43 40 40 44 44 37 34 30
35 41 39 31 22 9 4 6 18 7 12 27 51 94 90 38 20 36 32 36 37 36 41 37 34 26 30 28 22 24 10 6 7 18 21 42 78 94 80 59 47 48 45 43 42 48 46 39 35
57 55 43 22 4 5 8 16 6 11 36 30 40 50 37 33 55 47 41 47 43 37 34 36 37 32 32 27 28 22 23 7 8 11 24 27 66 97 86 69 50 50 48 46 48 46 51 49 41
64 44 36 11 4 5 5 10 3 30 21 54 58 66 60 53 46 45 64 49 33 33 34 42 38 32 36 37 37 32 24 19 7 9 16 29 42 82 95 58 51 57 55 51 50 51 49 56 51
43 33 23 8 5 4 5 3 4 16 46 79 76 60 51 42 45 52 59 45 48 41 42 48 50 54 44 42 45 53 42 24 9 8 12 26 51 73 96 69 44 51 56 55 56 53 52 58 56
47 25 6 6 8 3 8 7 14 35 67 53 63 80 50 59 52 58 54 55 49 32 30 34 51 57 57 79 96 90 56 34 14 7 11 17 57 75 99 97 72 62 63 62 61 61 59 63 64
36 12 7 9 4 3 6 10 20 40 78 72 82 74 75 64 52 63 51 42 47 37 49 39 66 58 70 85 88 93 66 34 21 6 10 18 55 68 100 98 96 85 67 67 67 69 70 71 74
17 10 10 6 6 6 6 8 18 37 55 73 86 96 77 62 56 74 56 43 38 44 51 71 70 89 89 97 73 42 37 38 27 7 9 22 59 67 82 97 96 84 62 75 74 78 78 79 82
27 25 7 8 22 7 4 9 19 43 75 88 95 91 73 66 63 74 70 59 42 65 88 98 92 96 89 100 86 46 56 48 36 16 9 21 44 96 93 96 95 94 80 86 71 87 84 98 92
63 9 6 13 31 11 6 8 16 39 73 83 84 83 74 65 76 70 78 53 55 41 92 99 100 100 95 98 100 62 27 55 48 16 10 25 72 98 92 97 99 95 98 94 97 98 96 97 82

GFSSGP_500_rhum_132.txt.gz
RH
13 8 6 9 16 20 20 27 26 24 26 24 27 26 25 24 23 17 14 17 17 15 17 20 24 26 20 17 16 16 18 18 15 15 14 15 15 16 18 9 4 4 6 14 16 20 24 23 27
20 20 14 8 6 10 14 13 20 16 16 18 28 19 16 15 11 10 9 11 14 15 18 18 15 16 15 16 16 16 17 18 17 15 16 16 16 15 18 15 5 4 7 14 12 11 18 32 36
27 27 21 14 8 11 17 12 13 16 10 14 23 15 15 13 14 15 15 15 17 17 17 18 21 19 15 14 14 14 16 18 18 16 18 17 18 18 18 19 7 5 6 11 10 9 11 21 13
38 36 34 25 20 22 25 17 15 14 12 18 25 27 21 19 17 18 19 17 18 22 20 20 19 22 19 15 14 16 16 16 18 18 17 19 19 18 19 20 10 6 10 10 10 6 11 11 4
43 44 42 41 37 27 28 33 22 24 22 35 43 38 28 22 24 31 42 38 34 32 28 24 24 25 32 19 16 15 16 18 18 17 18 20 20 18 19 22 15 9 8 14 11 7 8 4 4
49 49 47 44 40 36 34 37 36 32 26 30 48 26 30 35 39 36 29 22 20 25 33 33 32 27 26 24 20 17 16 18 18 17 17 20 21 17 17 22 19 23 14 12 8 6 5 4 4
45 55 55 50 44 41 38 34 32 31 42 60 64 57 55 44 36 30 29 28 29 17 17 22 29 34 30 26 25 21 19 17 18 18 19 20 22 20 18 19 21 15 14 13 7 8 4 4 4
37 42 51 61 61 52 47 52 54 55 66 73 69 81 66 56 50 46 47 44 41 32 20 17 15 19 35 33 28 26 22 20 19 19 20 21 22 22 22 20 21 18 15 13 11 7 7 5 5
28 26 31 35 39 52 58 63 65 70 78 69 76 80 76 63 65 61 60 63 56 54 37 30 34 22 18 30 35 29 25 23 22 22 22 22 23 23 22 23 22 22 15 11 10 11 10 6 6
13 12 13 14 15 19 28 38 48 50 52 49 51 45 42 48 43 35 32 34 39 63 74 48 33 41 25 21 30 36 30 28 28 24 24 24 24 24 23 23 24 24 20 14 12 14 14 7 6
6 8 7 8 7 7 9 8 10 11 33 24 20 30 34 32 23 22 28 28 32 34 41 50 65 44 43 36 23 34 32 34 31 32 34 29 26 25 26 25 26 27 26 18 18 18 12 9 7
8 7 9 13 13 12 11 8 6 8 8 13 13 19 16 22 26 30 29 28 28 29 28 28 31 50 58 42 39 29 59 54 36 32 37 32 30 28 29 29 28 28 30 24 30 30 15 12 10
12 13 12 13 15 13 10 11 12 18 15 14 15 9 11 12 13 11 10 11 11 11 12 12 17 24 26 54 67 50 34 37 59 61 64 47 35 29 30 30 30 28 30 27 28 37 32 15 13
13 13 14 12 14 15 14 15 12 14 17 17 11 10 9 9 10 10 8 8 8 8 8 8 7 7 12 19 25 41 62 54 31 64 76 93 57 32 29 31 31 32 30 33 29 36 22 17 15
9 9 10 14 14 16 14 13 15 18 17 12 10 8 8 10 10 9 9 8 8 7 7 6 5 5 5 5 9 19 21 34 63 26 75 96 95 55 36 30 31 32 31 34 34 35 28 18 17
6 6 7 8 15 18 15 15 10 14 14 10 10 13 13 11 10 9 7 7 6 6 6 5 5 4 3 4 4 5 14 17 28 57 31 84 95 66 39 33 32 33 32 32 37 36 34 24 18
6 6 7 7 8 20 23 15 14 14 14 13 17 12 12 11 8 7 6 6 5 6 5 5 6 5 4 3 3 4 4 12 17 24 54 52 75 92 46 36 36 36 35 34 38 41 36 25 20
9 9 8 10 17 22 24 18 22 19 20 21 17 12 10 8 6 6 7 8 14 19 21 19 17 16 16 15 12 3 3 4 10 16 22 45 63 98 87 47 38 35 38 35 35 39 42 32 24
10 10 10 15 32 24 32 32 29 24 21 17 11 10 7 6 6 8 16 27 25 18 15 14 15 16 15 14 14 11 6 3 3 11 16 24 54 87 97 85 46 37 38 38 38 39 41 38 31
12 12 13 14 25 30 36 37 31 28 19 14 9 7 5 5 11 38 40 22 20 16 14 17 16 14 18 18 15 16 12 7 3 4 12 16 36 70 92 96 71 42 39 39 40 37 41 40 33
17 16 17 16 18 44 42 35 28 18 13 11 7 6 7 9 15 31 45 36 18 30 38 34 31 25 27 31 21 21 13 12 6 3 7 12 24 72 84 96 94 48 50 41 43 42 40 43 38
23 43 45 36 43 45 36 34 32 18 15 6 12 9 11 31 21 23 20 29 37 41 47 44 34 28 29 26 17 29 17 18 12 5 4 8 12 43 85 87 96 66 52 43 43 46 44 42 45
39 56 68 74 64 56 34 24 22 14 7 6 6 16 30 54 55 42 42 32 44 46 42 38 38 31 31 33 33 28 26 19 19 16 7 7 10 15 67 84 100 97 60 50 44 48 47 45 45
91 90 85 78 45 46 26 22 14 9 6 6 13 33 40 55 63 63 34 32 51 37 40 46 45 36 32 36 37 39 26 20 26 19 18 5 9 11 28 89 96 98 86 64 51 50 51 52 52
100 93 77 62 33 24 12 9 9 7 8 20 44 54 59 58 55 35 27 37 47 31 38 43 40 52 49 39 38 48 53 42 23 23 20 13 7 8 15 52 100 96 98 64 67 57 55 53 58
99 98 98 76 55 51 11 11 11 10 22 26 32 45 43 50 55 41 36 38 46 48 45 39 49 41 43 45 46 45 45 72 48 34 30 21 6 9 9 30 98 90 100 79 68 75 63 58 59
73 84 100 88 63 25 16 16 12 12 15 20 39 48 53 67 62 53 40 51 52 56 39 47 54 35 42 55 51 57 81 73 87 48 39 24 12 8 9 17 54 96 94 100 73 83 75 66 62
64 100 90 63 27 33 26 16 9 11 14 17 32 58 67 76 73 53 43 54 52 51 43 45 44 37 47 66 74 76 90 100 100 82 54 39 22 7 10 15 24 96 96 96 84 79 83 75 69
100 86 55 56 48 37 16 20 7 13 15 16 27 60 72 82 91 67 48 49 59 69 52 52 48 45 63 84 83 80 80 54 43 83 94 62 34 8 8 12 27 68 94 96 95 76 77 79 89
100 99 98 96 72 40 43 13 11 16 20 25 35 72 72 86 87 81 57 51 58 80 67 64 57 57 56 76 100 57 88 100 78 63 69 54 34 10 7 10 34 79 95 98 97 95 79 82 74

GFSSGP_500_rhum_135.txt.gz
RH
18 18 19 11 10 16 18 16 18 20 17 14 20 24 23 22 22 23 23 22 17 14 15 17 16 17 18 22 23 20 17 16 17 19 16 15 16 16 17 15 18 6 4 6 16 19 17 25 30
20 20 25 19 12 11 9 9 13 12 13 9 9 17 21 24 25 26 24 20 16 13 15 18 17 17 17 16 15 15 17 18 16 17 17 16 16 16 19 17 17 13 5 6 13 12 11 16 20
22 24 34 36 26 15 10 10 14 12 12 9 9 10 15 13 16 22 24 26 26 21 26 27 21 18 17 22 18 14 13 16 17 17 19 18 17 17 18 20 18 17 6 7 11 10 10 10 16
27 31 36 44 42 35 22 15 12 13 16 17 16 13 12 12 13 21 28 31 35 30 31 36 37 29 23 19 18 18 15 14 16 19 20 20 18 18 17 18 22 19 9 6 14 13 6 11 8
39 43 43 48 44 42 40 31 23 23 21 19 20 20 21 21 22 22 30 37 45 47 42 34 33 37 31 25 26 28 20 17 16 17 21 23 21 19 19 17 19 22 17 10 11 18 6 9 5
42 47 54 53 49 44 43 38 36 36 34 33 34 38 48 53 45 46 38 37 36 25 22 18 19 24 31 34 30 27 29 21 19 18 19 21 23 22 22 19 17 23 19 23 15 14 8 7 4
39 49 59 67 62 56 52 46 41 38 36 41 47 45 65 63 55 44 40 40 39 39 37 32 22 17 23 31 33 32 27 25 26 26 25 24 21 22 24 23 20 19 22 16 15 13 7 8 4
28 30 37 53 62 66 63 63 63 58 62 65 60 62 62 67 64 55 61 71 76 75 71 64 45 43 40 27 17 19 29 30 25 27 30 31 28 24 24 26 24 21 21 18 16 14 12 7 6
25 24 22 27 32 40 54 59 68 74 73 69 63 55 40 24 28 44 67 68 53 43 41 45 64 60 50 47 42 26 18 24 33 29 26 27 30 28 27 27 26 24 23 21 16 13 11 10 9
8 7 6 7 8 11 18 32 40 42 40 37 42 45 14 16 21 22 32 42 43 41 36 30 31 34 60 72 52 45 33 21 28 31 26 26 28 31 30 30 27 27 26 24 20 15 13 12 16
6 6 5 5 5 8 12 12 13 11 16 11 16 13 14 13 10 13 14 13 21 24 27 30 25 24 27 36 69 68 43 36 27 29 34 30 29 27 30 32 30 29 29 27 24 18 16 16 13
7 8 10 10 10 10 11 13 13 14 13 12 11 12 15 17 22 30 26 17 11 11 11 10 10 11 13 19 28 47 68 46 40 31 50 41 32 30 32 34 35 32 30 31 30 24 20 24 19
7 9 9 12 12 12 11 14 14 14 11 10 8 9 12 14 14 16 14 11 10 10 9 9 8 9 9 10 11 20 28 62 60 45 38 61 74 35 32 32 34 37 32 31 32 30 25 38 38
5 7 9 10 10 10 10 14 14 13 11 11 8 8 12 14 13 13 12 12 11 9 9 9 8 8 8 8 8 8 11 22 33 67 54 37 66 93 48 40 31 38 36 32 31 32 27 34 38
4 6 7 6 6 6 7 11 15 12 13 12 11 11 15 17 17 16 16 14 12 12 11 8 7 7 7 7 6 7 7 7 14 19 58 65 45 69 97 78 44 37 40 36 33 30 32 29 38
5 5 6 5 5 6 6 8 7 8 11 18 14 9 11 12 15 21 18 16 15 14 11 7 6 6 5 5 5 6 6 5 6 7 16 31 68 61 76 96 76 43 39 40 35 32 37 37 38
5 5 5 6 7 8 8 8 8 8 9 11 14 13 14 15 20 20 18 15 13 9 8 7 5 4 4 5 5 5 5 5 4 4 6 12 21 60 69 80 96 68 42 37 36 34 34 41 39
8 7 9 10 10 10 10 9 9 10 11 13 17 18 20 24 19 18 17 11 9 7 6 5 5 9 13 13 11 9 7 6 6 4 4 5 11 20 51 94 89 89 60 39 37 41 40 40 42
23 18 10 10 12 10 12 12 12 12 15 16 27 30 28 17 15 14 8 7 6 6 8 18 30 26 23 18 14 12 10 7 10 6 4 3 5 12 25 59 71 95 82 38 36 47 53 40 41
31 29 20 18 19 18 17 17 17 21 28 36 36 27 16 14 12 6 6 6 10 11 14 19 19 23 24 30 28 23 15 8 8 11 10 4 4 7 14 32 92 96 92 44 35 50 54 42 42
25 19 17 16 17 21 22 18 22 30 35 31 22 19 16 11 6 6 8 17 19 13 16 18 31 32 30 30 24 17 15 20 14 11 10 10 4 4 9 16 31 59 87 96 38 45 62 50 46
16 22 19 18 20 22 28 23 29 38 42 32 21 19 9 7 6 8 13 20 26 21 17 31 37 24 26 31 26 20 21 21 21 23 17 11 8 4 5 11 18 67 92 96 77 45 61 60 56
18 22 37 52 61 62 53 64 46 49 38 28 19 11 7 6 9 17 20 17 27 22 19 34 38 36 32 34 32 24 23 32 29 20 16 20 11 5 4 6 12 33 100 99 97 61 60 64 60
25 51 75 69 79 70 73 62 57 44 30 22 12 8 7 13 21 32 21 36 35 24 30 38 47 51 43 36 46 36 38 36 29 21 20 27 12 11 3 4 8 15 73 91 94 93 67 72 66
61 79 84 81 83 80 76 67 54 39 24 16 11 7 12 23 32 32 37 44 39 35 48 49 48 42 56 75 61 39 37 40 32 32 26 30 18 16 7 4 6 13 25 89 96 98 78 80 69
75 100 100 92 85 76 76 70 67 50 30 14 8 17 19 30 41 39 43 48 38 42 47 38 40 40 56 45 43 26 37 34 31 48 41 30 22 22 19 5 5 9 15 30 83 96 98 87 78
57 82 100 98 80 70 54 53 67 40 36 18 8 14 17 31 30 48 48 51 41 43 39 43 50 49 36 33 22 20 34 30 20 32 65 50 32 25 22 14 5 7 11 20 91 97 94 97 86
84 90 100 100 99 74 43 63 34 46 33 10 9 12 17 20 35 53 61 52 44 41 40 48 43 34 33 29 30 25 32 48 50 57 96 80 50 34 24 20 6 6 9 15 64 95 96 99 92
89 92 81 96 99 98 76 60 76 58 28 9 10 18 27 23 43 60 62 58 46 44 41 55 43 38 48 56 49 45 65 82 70 51 100 99 75 46 28 23 14 6 7 11 19 96 97 96 95
91 74 74 100 100 99 93 76 71 66 47 12 11 16 26 54 52 62 62 64 62 53 48 56 41 44 49 77 58 69 95 88 83 43 100 100 77 52 35 29 25 10 7 8 18 43 98 97 96